Simultaneous Nadir Overpasses (SNOs) Predictions

Prediction of SNOs near equator between AQUA and NPP Satellite Orbit:

Table of predicted SNOs near equator for the next 14.0 days since TLE Epoch: 6/26/2021
Index Date (AQUA) Time (AQUA) AQUA Lat,Lon Date (NPP) Time (NPP) NPP Lat,Lon Distance(km) Time Diff (sec)
1 06/28/2021 07:53:33 -9.41, -95.89 06/28/2021 07:43:33 -9.45, -96.13 26.26 600
2 06/28/2021 08:40:58 1.82, 73.35 06/28/2021 08:32:11 1.74, 72.91 50.77 527
3 06/28/2021 09:29:06 2.68,-118.03 06/28/2021 09:21:34 2.83,-118.74 80.54 452
4 07/01/2021 00:08:43 -4.74, 20.99 06/30/2021 23:59:08 -4.67, 20.72 31.68 575
5 07/01/2021 00:56:57 0.12,-170.40 07/01/2021 00:48:38 0.01,-170.94 61.61 499
6 07/01/2021 01:45:05 4.38, -1.79 07/01/2021 01:38:01 4.56, -2.59 91.18 424
7 07/03/2021 15:42:47 29.98, -36.59 07/03/2021 15:32:47 30.62, -37.17 90.34 600
8 07/03/2021 16:24:43 -3.04, 137.24 07/03/2021 16:15:36 -2.94, 136.87 42.63 547
9 07/03/2021 17:12:57 -1.59, -54.15 07/03/2021 17:05:06 -1.72, -54.79 72.44 471
10 07/06/2021 07:52:35 5.85, 84.87 07/06/2021 07:42:41 5.78, 84.67 23.67 594
11 07/06/2021 08:40:42 -1.29,-106.50 07/06/2021 08:32:04 -1.21,-106.98 53.52 518
12 07/06/2021 09:28:57 -3.28, 62.09 07/06/2021 09:21:34 -3.45, 61.36 83.25 443
13 07/09/2021 00:08:34 4.10,-158.87 07/08/2021 23:59:09 4.05,-159.18 34.55 565
14 07/09/2021 00:56:42 0.40, 9.74 07/09/2021 00:48:32 0.52, 9.17 64.45 490
15 07/09/2021 01:44:56 -5.03, 178.35 07/09/2021 01:38:02 -5.17, 177.51 94.02 414
